This is the latest recevied weather packets stored in our database for station/object SR2ATJ-13. If no packets are shown the sender has not sent any weather packets the latest 10 day(s).
| Time | Temp. | Humidity | Pressure | Rain* | Wind** | Luminosity | Snow |
|---|---|---|---|---|---|---|---|
| 1777914903 | 21.11° C | 42% | 1011 hPa | - | - | - | - |
| 1777913703 | 21.67° C | 40% | 1010.9 hPa | - | - | - | - |
| 1777913102 | 22.22° C | 40% | 1010.8 hPa | - | - | - | - |
| 1777912502 | 22.22° C | 40% | 1010.9 hPa | - | - | - | - |
| 1777911302 | 22.78° C | 40% | 1010.9 hPa | - | - | - | - |
| 1777910702 | 22.78° C | 41% | 1011 hPa | - | - | - | - |
| 1777910102 | 22.78° C | 40% | 1010.9 hPa | - | - | - | - |
| 1777909503 | 23.33° C | 40% | 1010.9 hPa | - | - | - | - |
| 1777908902 | 23.33° C | 37% | 1010.8 hPa | - | - | - | - |
| 1777906502 | 24.44° C | 36% | 1010.8 hPa | - | - | - | - |
| 1777905903 | 25° C | 36% | 1010.8 hPa | - | - | - | - |
| 1777905304 | 24.44° C | 35% | 1010.9 hPa | - | - | - | - |
| 1777904702 | 25° C | 35% | 1010.8 hPa | - | - | - | - |
| 1777904105 | 24.44° C | 35% | 1010.8 hPa | - | - | - | - |
| 1777903506 | 24.44° C | 36% | 1010.9 hPa | - | - | - | - |
| 1777902903 | 25° C | 35% | 1010.8 hPa | - | - | - | - |
| 1777902303 | 24.44° C | 37% | 1011.1 hPa | - | - | - | - |
| 1777901703 | 24.44° C | 37% | 1011.1 hPa | - | - | - | - |
| 1777901104 | 25.56° C | 36% | 1011.1 hPa | - | - | - | - |
| 1777900504 | 25.56° C | 37% | 1011.2 hPa | - | - | - | - |
| 1777899903 | 25° C | 37% | 1011.2 hPa | - | - | - | - |
| 1777899304 | 24.44° C | 37% | 1011.4 hPa | - | - | - | - |
| 1777898705 | 24.44° C | 37% | 1011.5 hPa | - | - | - | - |
| 1777898105 | 25° C | 36% | 1011.5 hPa | - | - | - | - |
| 1777897504 | 25.56° C | 37% | 1011.5 hPa | - | - | - | - |
* Rain since midnight (hover to see other rain measurements)
** Current wind speed in m/s (hover to see current wind gust speed)